Regional Weather Roundup
Issued by NWS

Home | Current Version | Previous Version | Text Only | Print | Product List | Glossary On
Versions: 1 2 3 4 5 6 7 8 9 10 11 12 13 14 15 16 17 18 19 20 21 22 23 24 25 26 27
000
ASUS45 KREV 240410
RWRNV
NEVADA REGIONAL WEATHER ROUNDUP
NATIONAL WEATHER SERVICE RENO NV
900 PM PDT WED MAY 23 2018

NOTE: "FAIR" INDICATES FEW OR NO CLOUDS BELOW 12,000 FEET WITH NO
SIGNIFICANT WEATHER AND/OR OBSTRUCTIONS TO VISIBILITY.

NVZ001-003-004-240500-
WESTERN NEVADA

CITY           SKY/WX    TMP DP  RH WIND       PRES   REMARKS
RENO           PTCLDY    64  46  52 VRB7      30.00R
CARSON CITY    FAIR      63  43  48 NW13G20   30.02R
MINDEN         FAIR      63  45  51 NW5       30.02R
FALLON         LGT RAIN  61  52  72 N15       29.96R
LOVELOCK       CLOUDY    69  46  43 N9        29.96R
$$

NVZ002-CAZ072-073-240500-
NORTHERN AND CENTRAL SIERRA

CITY           SKY/WX    TMP DP  RH WIND       PRES   REMARKS
S. LAKE TAHOE  CLEAR     49  45  86 CALM      30.09R
TRUCKEE        CLEAR     48  43  81 CALM      30.09R
SQUAW VLY 8000 NOT AVBL
BLUE CANYON    CLEAR     52  49  89 CALM      30.08R
MAMMOTH LAKES  FAIR      54  40  60 CALM      30.11R
BRIDGEPORT     FAIR      54  36  50 CALM      30.07R
$$

NVZ030-031-036-240500-
NORTHERN NEVADA

CITY           SKY/WX    TMP DP  RH WIND       PRES   REMARKS
ELKO           PTCLDY    62  45  53 SE5       30.00R
WINNEMUCCA     PTCLDY    59  49  69 CALM      29.99R
WENDOVER       PTCLDY    65  48  54 NW3       29.99R
$$

NVZ035-037-240500-
CENTRAL NEVADA

CITY           SKY/WX    TMP DP  RH WIND       PRES   REMARKS
ELY            CLEAR     50  39  66 CALM      30.08R
EUREKA           N/A     56  47  71 CALM      30.05R
$$

NVZ013-014-240500-
SOUTH CENTRAL NEVADA

CITY           SKY/WX    TMP DP  RH WIND       PRES   REMARKS
TONOPAH        MOCLDY    68  33  27 S9        30.01R
$$

NVZ017-020-022-240500-
SOUTHERN NEVADA

CITY           SKY/WX    TMP DP  RH WIND       PRES   REMARKS
LAS VEGAS      CLEAR     85  31  14 S12G18    29.85R
N. LAS VEGAS   CLEAR     84  26  12 S12       29.85R
NELLIS AFB     CLEAR     85  29  13 SE12      29.84R
HENDERSON      CLEAR     82  31  15 S14       29.89R
MERCURY        CLEAR     77  32  19 SW9       29.90R
$$




USA.gov is the U.S. government's official web portal to all federal, state and local government web resources and services.